Weather History for Kirksville, MO

Change the Weather History Date:

Sunday, August 18, 2013

  Actual Average Record
Temperature  
Mean Temperature 68 °F 74 °F  
Max Temperature 85 °F 85 °F 106 °F (1936)
Min Temperature 50 °F 63 °F 46 °F (2012)
Degree Days  
Heating Degree Days 0 0  
Month to date heating degree days 5 0  
Since 1 June heating degree days 49 17  
Since 1 July heating degree days 13 1  
Cooling Degree Days 3 9  
Month to date cooling degree days 102 177  
Year to date cooling degree days 634 744  
Since 1 June cooling degree days 566 682  
Growing Degree Days 18 (Base 50)    
Moisture  
Dew Point 55 °F    
Average Humidity 69    
Maximum Humidity 100    
Minimum Humidity 37    
Precipitation  
Precipitation 0.00 in 0.12 in 4.53 in (1970)
Month to date precipitation T 2.05  
Year to date precipitation 29.89 25.64  
Sea Level Pressure  
Sea Level Pressure 30.16 in    
Wind  
Wind Speed 2 mph (SSE)    
Max Wind Speed 10 mph    
Max Gust Speed 16 mph    
Visibility 8 miles    
Events      
T = Trace of Precipitation, MM = Missing Value Source: NWS Daily Summary

Daily Weather History Graph

Daily Weather History Graph

Search for Another Location

Airport:

Trip Planner

Search our weather history database for the weather conditions in past years. The results will help you decide how hot, cold, wet, or windy it might be!

Date:

Astronomy

Aug. 18, 2013 Rise Set
Actual Time 6:24 AM CDT 8:02 PM CDT
Civil Twilight 5:55 AM CDT 8:31 PM CDT
Nautical Twilight 5:21 AM CDT 9:05 PM CDT
Astronomical Twilight 4:44 AM CDT 9:42 PM CDT
Moon 6:08 PM CDT (8/18) 3:34 AM CDT (8/18)
Length of Visible Light 14h 35m
Length of Day
13h 37m
Waxing Gibbous, 92% of the Moon is Illuminated
Aug 18
Waxing Gibbous
Aug 20
Full
Aug 28
Last Quarter
Sep 5
New
Sep 12
First Quarter

Hourly Weather History & Observations

Time (CDT) Temp. Heat Index Dew Point Humidity Pressure Visibility Wind Dir Wind Speed Gust Speed Precip Events Conditions
12:55 AM 55.0 °F - 53.1 °F 93% 30.17 in 10.0 mi Calm Calm - N/A   Clear
1:55 AM 53.1 °F - 52.0 °F 96% 30.17 in 6.0 mi Calm Calm - N/A   Clear
2:55 AM 53.1 °F - 51.1 °F 93% 30.17 in 6.0 mi Calm Calm - N/A   Clear
3:55 AM 52.0 °F - 52.0 °F 100% 30.17 in 5.0 mi Calm Calm - N/A   Clear
4:55 AM 52.0 °F - 51.1 °F 97% 30.17 in 4.0 mi Calm Calm - N/A   Clear
5:55 AM 51.1 °F - 51.1 °F 100% 30.18 in 5.0 mi Calm Calm - N/A   Clear
6:13 AM 51.8 °F - 50.0 °F 94% 30.19 in 2.0 mi Calm Calm - N/A   Clear
6:22 AM 51.8 °F - 50.0 °F 94% 30.19 in 5.0 mi Calm Calm - N/A   Clear
6:51 AM 51.8 °F - 51.8 °F 100% 30.20 in 2.0 mi Calm Calm - N/A   Clear
6:55 AM 52.0 °F - 52.0 °F 100% 30.20 in 2.5 mi Calm Calm - N/A   Clear
7:06 AM 53.6 °F - 51.8 °F 94% 30.20 in 3.0 mi Calm Calm - N/A   Clear
7:55 AM 62.1 °F - 55.9 °F 80% 30.21 in 10.0 mi Calm Calm - N/A   Clear
8:55 AM 68.0 °F - 57.9 °F 70% 30.22 in 10.0 mi Calm Calm - N/A   Clear
9:55 AM 73.0 °F - 59.0 °F 61% 30.21 in 10.0 mi Calm Calm - N/A   Clear
10:55 AM 77.0 °F - 55.9 °F 48% 30.21 in 10.0 mi Calm Calm - N/A   Clear
11:55 AM 79.0 °F - 54.0 °F 42% 30.19 in 10.0 mi Variable 3.5 mph - N/A   Clear
12:55 PM 80.1 °F 80.0 °F 54.0 °F 40% 30.17 in 10.0 mi Variable 3.5 mph - N/A   Clear
1:55 PM 82.9 °F 82.1 °F 55.9 °F 39% 30.15 in 10.0 mi Variable 4.6 mph - N/A   Clear
2:55 PM 84.0 °F 83.0 °F 55.9 °F 38% 30.14 in 10.0 mi Variable 3.5 mph - N/A   Scattered Clouds
3:55 PM 82.9 °F 82.4 °F 57.0 °F 41% 30.12 in 10.0 mi Calm Calm - N/A   Scattered Clouds
4:55 PM 82.0 °F 82.0 °F 57.9 °F 44% 30.11 in 10.0 mi SSE 8.1 mph - N/A   Mostly Cloudy
5:55 PM 82.0 °F 82.1 °F 59.0 °F 45% 30.11 in 10.0 mi South 6.9 mph - N/A   Partly Cloudy
6:55 PM 79.0 °F - 60.1 °F 52% 30.11 in 10.0 mi SSE 5.8 mph - N/A   Partly Cloudy
7:55 PM 72.0 °F - 61.0 °F 68% 30.12 in 10.0 mi SSE 5.8 mph - N/A   Clear
8:55 PM 66.9 °F - 60.1 °F 79% 30.12 in 9.0 mi SE 4.6 mph - N/A   Clear
9:55 PM 64.9 °F - 60.1 °F 84% 30.13 in 8.0 mi SSE 3.5 mph - N/A   Clear
10:55 PM 64.0 °F - 60.1 °F 87% 30.12 in 8.0 mi South 3.5 mph - N/A   Clear
11:55 PM 60.1 °F - 57.9 °F 93% 30.13 in 7.0 mi Calm Calm - N/A   Clear